Flag for United Kingdom Weather past 2 weeks in Edinburgh, Scotland, United Kingdom

Now
50 °F

Sunny.


Feels Like: 48 °F
Forecast: 45 / 58 °F
Wind: 6 mph from Southwest

Location: Edinburgh Airport

Current Time: Sep 4, 2015 at 9:21:23 AM

Latest Report: Sep 4, 2015 at 8:50 AM


Visibility: 10 mi

Pressure: 30.07 "Hg

Humidity: 82%

Dew point: 45 °F

Location of EdinburghLocation

Historic Weather in Edinburgh — Graph

°F

Edinburgh temperature yesterday

Maximum temperature yesterday: 59 °F (at 12:50 PM)
Minimum temperature yesterday: 48 °F (at 3:20 AM)
Average temperature yesterday: 54 °F

Past Weeks' High & Low Weather Summary

 TemperatureHumidityPressure
High75 °F (Aug 23, 1:20 PM)100% (Aug 22, 11:20 PM)30.09 "Hg (Aug 22, 11:20 PM)
Low37 °F (Sep 4, 5:20 AM)44% (Aug 23, 2:20 PM)29.27 "Hg (Aug 26, 11:20 AM)
Average58 °F78%29.82 "Hg
* Reported Aug 20 8:20 AM — Sep 4 8:20 AM, Edinburgh, Weather by CustomWeather, © 2015

Note: Actual official high and low records may vary slightly from our data, if they occured in-between our weather recording intervals... More about our weather records

Advertising

Edinburgh weather history for previous 24 hours

 ConditionsComfort  
Time TempWeatherWind HumidityBarometerVisibility
8:20 AM
Fri, Sep 4
48 °FSunny.5 mph82%30.07 "Hg10 mi
7:50 AM45 °FSunny.3 mph87%30.07 "Hg10 mi
7:20 AM43 °FClear.2 mph93%30.07 "Hg10 mi
6:50 AM41 °FClear.3 mph93%30.07 "Hg10 mi
6:20 AM39 °FClear.No wind93%30.07 "Hg10 mi
5:50 AM37 °FClear.No wind93%30.07 "Hg10 mi
5:20 AM37 °FChilly.5 mph93%30.07 "HgN/A
4:50 AM43 °FClear.2 mph87%30.07 "Hg10 mi
4:20 AM41 °FPassing clouds.6 mph93%30.07 "HgN/A
3:50 AM43 °FPassing clouds.5 mph87%30.07 "HgN/A
3:20 AM45 °FClear.6 mph87%30.07 "Hg10 mi
2:50 AM46 °FCool.3 mph87%30.07 "HgN/A
2:20 AM46 °FPassing clouds.5 mph82%30.07 "HgN/A
1:50 AM50 °FPassing clouds.3 mph76%30.07 "HgN/A
1:20 AM50 °FPassing clouds.3 mph76%30.07 "HgN/A
12:50 AM50 °FClear.3 mph76%30.07 "Hg10 mi
12:20 AM48 °FClear.2 mph76%30.07 "Hg10 mi
11:50 PM
Thu, Sep 3
50 °FClear.2 mph71%30.07 "Hg10 mi
11:20 PM52 °FClear.3 mph67%30.07 "Hg10 mi
10:20 PM50 °FPassing clouds.No wind76%30.04 "HgN/A
9:50 PM50 °FClear.2 mph76%30.04 "Hg10 mi
9:20 PM54 °FClear.2 mph67%30.04 "Hg10 mi
8:50 PM54 °FPassing clouds.2 mph67%30.04 "HgN/A
8:20 PM55 °FPassing clouds.8 mph63%30.04 "HgN/A
7:50 PM57 °FScattered clouds.8 mph59%30.01 "HgN/A
7:20 PM59 °FScattered clouds.6 mph59%30.01 "HgN/A
6:50 PM59 °FScattered clouds.7 mph59%30.01 "HgN/A
6:20 PM59 °FScattered clouds.8 mph59%30.01 "HgN/A
5:50 PM59 °FPartly sunny.9 mph59%30.01 "HgN/A
5:20 PM59 °FPartly sunny.12 mph59%30.01 "HgN/A
4:50 PM59 °FPartly sunny.10 mph59%29.98 "HgN/A
4:20 PM59 °FMostly cloudy.9 mph59%29.98 "HgN/A
3:50 PM59 °FPartly sunny.8 mph59%29.98 "HgN/A
3:20 PM59 °FPartly sunny.8 mph59%29.98 "HgN/A
2:50 PM57 °FPartly sunny.7 mph63%29.98 "HgN/A
2:20 PM57 °FPartly sunny.6 mph63%30.01 "HgN/A
1:50 PM57 °FSprinkles. Partly sunny.7 mph63%30.01 "HgN/A
1:20 PM59 °FPartly sunny.9 mph55%30.01 "HgN/A
12:50 PM59 °FPartly sunny.10 mph55%29.98 "HgN/A
12:20 PM57 °FPartly sunny.7 mph63%29.98 "HgN/A
11:50 AM57 °FPartly sunny.6 mph59%29.98 "HgN/A
11:20 AM55 °FBroken clouds.7 mph63%30.01 "HgN/A
10:50 AM57 °FPartly sunny.7 mph59%30.01 "HgN/A
10:20 AM55 °FPartly sunny.8 mph63%30.01 "HgN/A
9:50 AM55 °FPartly sunny.7 mph63%30.01 "HgN/A
9:20 AM54 °FScattered clouds.8 mph67%29.98 "HgN/A
Weather by CustomWeather, © 2015

See weather overviewHow to use our weather pages